Погода в Камышине

Погода в Камышине : погода сейчас, прогноз погоды и архив. Всё, что Вы хотите узнать о погоде в Камышине!

Хотите узнать прогноз погоды в Камышине? Тогда Вам сюда: Погода в Камышине

Поиск расширенной информации на нашем сайте:

Другие новости

Новости СМИ2

Главная страница сайта

Новости сайта

03.07.2017

Напоминаем, что на нашем специализированном сайте Метеоцентр.Азия вы можете получить высокодетализированные автоматические прогнозы погоды по пунктам России, СНГ и мира в авиационном формате (включающие направление и скорость ветра, видимость, явления погоды, количество и форму облачности, нижнюю и верхнюю границу облачности).

Рекомендуем: Навгеотех - геодезическое оборудование: GPS приемники, тахеометры, нивелиры, теодолиты, рулетки..

Погода в Камышине - сегодня

Время (UTC), дата Ветер
(°,м/с) 
Видим.   Явления Облачность Т
(°С)
Тd
(°С)
f(%) Тe
(°С)
Pmin
(гПа)
dP
(гПа)
Po
(мм)
O2
(г/м3)
Тmin Tmax R s Состояние
почвы
21 23.07.17 300 (СЗ) 20000 м    10/0 средняя 
[Ac As]
+22.7 +11.4 49 +26  1010.5  0.1  747  276           
00 24.07.17 360 (С) 20000 м    9/0 средняя 
[Ac trans]
+19.1 +15.5 80 +30  1010.9  0.2  747  278           
03 24.07.17 360 (С) 20000 м    8/0 средняя 
[Ac trans]
+17.7 +13.1 74 +24  1012.4  1.4  749  281  +17.2        сухая 
06 24.07.17 050 (СВ) 20000 м    3/0 средняя 
[Ac trans]
+21.5 +11.3 52 +24  1012.2  748  277           
09 24.07.17 070 (В) 20000 м    ясно 
+24.2 +8.9 38 +24  1012.1  749  276           
12 24.07.17 080 (В) 20000 м    ясно 
+26.2 +4.1 24 +26  1011.7  -0.3  748  274           
15 24.07.17 060 (СВ) 20000 м    ясно 
+26.2 +4.1 24 +26  1011.7  -0.5  748  274    +26.7       
18 24.07.17 030 (СВ) 20000 м    ясно 
+20.6 +8.1 45 +21  1012.5  749  279           
21 24.07.17 050 (СВ) 20000 м    ясно 
+19.1 +8.2 49 +20  1012.7  0.1  749  281           
00 25.07.17 060 (СВ) 20000 м    ясно 
+17.7 +10.3 62 +20  1012.9  0.1  749  281           
03 25.07.17 тихо ()   20000 м    4/0 средняя 
[Ac trans]
+19.3 +10.9 58 +22  1013  0.2  749  280  +16.5        сухая 
06 25.07.17 090 (В) 20000 м    5/0 средняя 
[Ac trans]
+23.3 +8.9 40 +23  1012.6  -0.3  749  276           
09 25.07.17 060 (СВ) 20000 м    6/0 средняя 
[Ac lent]
+25.7 +6.9 30 +26  1011.5  -0.9  748  274           
12 25.07.17 100 (В) 20000 м    4/0 средняя 
[Ac trans]
+27.1 +6.4 27 +27  1010.2  -1.2  747  273           
15 25.07.17 060 (СВ) 20000 м    ясно 
+26.9 +6.6 27 +27  1009.4  -0.8  747  273    +27.6       
18 25.07.17 060 (СВ) 20000 м    3/0 средняя 
[Ac trans]
+23.2 +10.5 45 +25  1010.1  0.6  747  276           
21 25.07.17 050 (СВ) 20000 м    4/0 средняя 
[Ac trans]
+21.5 +10.1 48 +23  1010.3  0.1  747  277           
00 26.07.17 060 (СВ) 20000 м  в посл. час ливневой дождь  6/0 средняя 
[Ac trans]
+20.3 +10.7 54 +22  1010.3  747  278           
03 26.07.17 080 (В) 20000 м    1/0 средняя 
[Ac lent]
+21.3 +10.1 49 +23  1010.2  0.1  747  277  +19.9        сухая 
06 26.07.17 080 (В) 20000 м    6/0 средняя 
[Ac cast]
+24.7 +11.1 42 +27  1010.1  0.1  747  274           
09 26.07.17 130 (ЮВ) 20000 м    1/0 средняя 
[Ac cast]
+29.6 +8.5 27 +30  1009.1  -0.7  746  270           
12 26.07.17 080 (В) 20000 м    1/0 средняя 
[Ac cast]
+31.2 +9.9 27 +32  1008.2  -0.9  746  268           
15 26.07.17 070 (В) 20000 м    3/0 средняя 
[Ac cast]
+29.7 +10.8 31 +32  1007.7  -0.5  745  269    +31.8       
18 26.07.17 060 (СВ) 20000 м    3/0 средняя 
[Ac trans]
+26.8 +10.9 37 +29  1009.2  1.3  746  272           
21 26.07.17 060 (СВ) 20000 м    3/0 средняя 
[Ac trans]
+23.5 +12.8 51 +29  1010.2  0.9  747  275           
Время (UTC), дата Ветер
(°,м/с) 
Видим.   Явления Облачность Т
(°С)
Тd
(°С)
f(%) Тe
(°С)
Pmin
(гПа)
dP
(гПа)
Po
(мм)
O2
(г/м3)
Тmin Tmax R s Состояние
почвы

Для получения пояснительной информации подведите курсор к названию столбца.

ПОГОДА в Камышине - архив

Всё, что Вы хотите узнать о погоде в Камышине - удобно и подробно!

Выберите нужную дату (начиная с 1 января 2015* года) и нажмите кнопку "Найти".
Будут отображены архивные сводки погоды по пункту Камышин, начиная с указанной даты.


Отображать данные в формате CSV (для использования в таблицах Excel)


Внимание! Наш архив погоды предназначен исключительно для личного некоммерческого использования в познавательных целях. Если Вам необходимы официальные справки о состоянии погоды (для производственных, юридических, коммерческих и т.п. целей), обращайтесь в органы Росгидромета.

*Примечание: данная дата относится к архиву по метеостанциям СССР (Россия, СНГ, Балтия).
Архив по метеостанциям Зарубежной Европы и Азии (кроме Китая) хранится 10 дней, по другим регионам земного шара (Китай, Африка, Америка, Австралия, Океания) - 1 день.

Камышин - район местоположения метеостанции


Название, широта, долгота, высота метеостанции:
Камышин 50.1°ш. 45.4°д. 119 м над ур. моря [Российская Федерация]

Дополнительная информация

В oтличие oт бoльшинства пoгoдных сайтoв мы публикуем пoдрoбную метеoинфoрмацию в детальнoм прoфессиoнальнoм фoрмате.

Характеристики температуры и влажнoсти вoздуха измеряются на высoте 2 м в тени вдали oт зданий и деревьев.
Скoрoсть ветра измеряется на высoте 10 м (на урoвне рoста челoвека скoрoсть ветра ниже в 1.5-2 раза). Если метеoстанция нахoдится в гoрoде или в лесу, тo скoрoсть ветра занижена на 2-4 м/с пo сравнению с oткрытым местoм. Скoрoсть ветра над акватoриями крупных рек и oзёр, а также на вершинах хoлмoв на 2-5 м/с выше, чем в oбычных услoвиях.
Атмoсфернoе давление в разных тoчках местнoсти мoжет значительнo oтличаться oт давления на метеoстанции, в зависимoсти oт услoвий рельефа (при пoдъёме на 10 м давление пoнижается примернo на 1 мм рт.ст.).